This demonstration page uses our WeatherBlox Daily Observations layout. Learn more.

Left ArrowRight Arrow

39.51506, -84.39828

Hourly Observations for June 2, 2018

Temp ( °F °C ) Dew Point ( °F °C ) Humidity (%) Winds ( mph kmh ) Pressure ( in mb ) Visibility ( mi km ) Precip ( " mm )
12:15 am 00:15 Clear 68 19.9 67 19.3 96 96 ENE 3 6 29.85 1011 10 16 N/A
12:35 am 00:35 Clear 68 20 67 19.2 95 95 ESE 3 6 29.85 1011 10 16 N/A
12:55 am 00:55 Clear 67 19.4 66 18.9 97 97 N N/A 29.85 1011 7 11 N/A
1:15 am 01:15 Clear with Mist and Fog 66 18.9 65 18.6 98 98 N N/A 29.85 1011 5 8 N/A
1:35 am 01:35 Clear with Mist and Fog 66 19 66 18.8 99 99 SSW 5 7 29.85 1011 7 11 N/A
1:55 am 01:55 Clear 67 19.4 66 18.9 97 97 S 3 6 29.85 1011 10 16 N/A
2:15 am 02:15 Clear 66 19.1 66 18.7 98 98 N N/A 29.85 1011 7 11 N/A
2:35 am 02:35 Clear with Mist and Fog 66 18.7 65 18.4 98 98 N N/A 29.85 1011 5 8 N/A
2:55 am 02:55 Clear with Mist and Fog 65 18.3 64 18 98 98 N N/A 29.85 1011 4 6 N/A
3:15 am 03:15 Mostly Cloudy with Mist and Fog 65 18.3 65 18.1 99 99 N N/A 29.85 1011 1 2 N/A
3:35 am 03:35 Clear with Mist and Fog 65 18.2 65 18.1 99 99 N N/A 29.85 1011 3 4 N/A
3:55 am 03:55 Clear with Mist and Fog 65 18.1 64 17.9 99 99 N N/A 29.85 1011 3 5 N/A
4:15 am 04:15 Clear with Mist and Fog 64 17.9 64 17.7 99 99 N N/A 29.85 1011 3 5 N/A
4:35 am 04:35 Clear with Mist and Fog 64 17.9 64 17.7 99 99 N N/A 29.85 1011 5 8 N/A
4:55 am 04:55 Clear with Mist and Fog 64 17.9 64 17.7 99 99 N N/A 29.85 1011 5 8 N/A
5:15 am 05:15 Clear with Mist and Fog 64 17.9 64 17.8 99 99 NE 3 6 29.85 1011 5 8 N/A
5:35 am 05:35 Clear with Mist and Fog 65 18.1 64 17.9 99 99 ENE 3 6 29.88 1012 4 6 N/A
5:55 am 05:55 Clear with Mist and Fog 64 18 64 17.8 99 99 N N/A 29.88 1012 3 5 N/A
6:15 am 06:15 Sunny with Mist and Fog 65 18.2 64 18 99 99 N N/A 29.88 1012 3 5 N/A
6:35 am 06:35 Sunny with Mist and Fog 65 18.2 64 18 99 99 NE 5 7 29.88 1012 3 4 N/A
6:55 am 06:55 Sunny with Mist and Fog 65 18.4 65 18.2 99 99 N 3 6 29.88 1012 3 4 N/A
7:15 am 07:15 Partly Cloudy with Mist and Fog 67 19.6 67 19.2 98 98 NNE 6 9 29.88 1012 3 5 N/A
7:35 am 07:35 Cloudy with Mist and Fog 68 20.1 67 19.4 96 96 NE 7 11 29.88 1012 3 5 N/A
7:55 am 07:55 Cloudy with Mist and Fog 69 20.3 67 19.5 95 95 NNE 7 11 29.88 1012 3 5 N/A
8:15 am 08:15 Cloudy with Mist and Fog 69 20.6 67 19.5 93 93 NNE 8 13 29.88 1012 4 6 N/A
8:35 am 08:35 Cloudy with Mist and Fog 69 20.8 67 19.3 91 91 NNE 7 11 29.88 1012 5 8 N/A
8:55 am 08:55 Cloudy with Mist and Fog 70 21 67 19.3 90 90 NNE 7 11 29.91 1013 5 8 N/A
9:15 am 09:15 Cloudy 71 21.4 67 19.5 89 89 NE 9 15 29.88 1012 7 11 N/A
9:35 am 09:35 Cloudy 71 21.6 67 19.5 88 88 NNE 6 9 29.91 1013 7 11 N/A
9:55 am 09:55 Cloudy 72 22.3 67 19.7 85 85 NE 5 7 29.91 1013 10 16 N/A
10:15 am 10:15 Cloudy 74 23.3 68 20 82 82 E 8 13 29.88 1012 10 16 N/A
10:35 am 10:35 Mostly Cloudy 73 22.9 67 19.7 82 82 NNW 6 9 29.91 1013 10 16 N/A
10:55 am 10:55 Partly Cloudy 74 23.3 68 20 82 82 N N/A 29.91 1013 7 11 N/A
11:15 am 11:15 Cloudy 74 23.5 67 19.7 79 79 N N/A 29.91 1013 10 16 N/A
11:35 am 11:35 Partly Cloudy 76 24.7 69 20.4 77 77 WNW 3 6 29.91 1013 10 16 N/A
11:55 am 11:55 Partly Cloudy 77 24.9 68 20.1 75 75 N N/A 29.91 1013 10 16 N/A
12:15 pm 12:15 Mostly Cloudy 77 25.2 69 20.8 77 77 W 3 6 29.91 1013 10 16 N/A
12:35 pm 12:35 Mostly Cloudy 78 25.5 68 20 72 72 N N/A 29.91 1013 7 11 N/A
12:55 pm 12:55 Cloudy 79 26 68 19.9 69 69 N N/A 29.91 1013 10 16 N/A
1:15 pm 13:15 Mostly Cloudy 80 26.6 68 20 67 67 N 5 7 29.91 1013 10 16 N/A
1:35 pm 13:35 Mostly Cloudy 78 25.8 70 20.9 74 74 NNW 5 7 29.91 1013 10 16 N/A
1:55 pm 13:55 Partly Cloudy 81 27 70 21.2 71 71 NNE 6 9 29.91 1013 10 16 N/A
2:15 pm 14:15 Mostly Cloudy 81 27.3 69 20.5 66 66 N 3 6 29.85 1011 10 16 N/A
2:35 pm 14:35 Partly Cloudy 82 27.8 69 20.8 66 66 NNE 8 13 29.85 1011 10 16 N/A
2:55 pm 14:55 Sunny 82 27.6 69 20.6 66 66 NNW 7 11 29.85 1011 10 16 N/A
3:15 pm 15:15 Partly Cloudy 82 27.8 69 20.6 65 65 N 7 11 29.85 1011 10 16 N/A
3:35 pm 15:35 Sunny 83 28.2 70 21.2 66 66 N 8 13 29.85 1011 10 16 N/A
3:55 pm 15:55 Partly Cloudy 83 28.4 68 20.1 61 61 NW 7 11 29.85 1011 10 16 N/A
4:15 pm 16:15 Mostly Cloudy 83 28.3 69 20.6 63 63 NE 5 7 29.83 1010 10 16 N/A
4:35 pm 16:35 Partly Cloudy 82 28 69 20.4 63 63 NNE 6 9 29.83 1010 10 16 N/A
4:55 pm 16:55 Sunny 83 28.4 69 20.4 62 62 ENE 6 9 29.83 1010 10 16 N/A
5:15 pm 17:15 Sunny 83 28.5 68 20.1 60 60 NNE 5 7 29.80 1009 10 16 N/A
5:35 pm 17:35 Sunny 83 28.6 67 19.7 59 59 NW 6 9 29.83 1010 10 16 N/A
5:55 pm 17:55 Partly Cloudy 82 28 67 19.6 60 60 N N/A 29.80 1009 10 16 N/A
6:15 pm 18:15 Sunny 83 28.3 68 20.1 61 61 ENE 8 13 29.80 1009 10 16 N/A
6:35 pm 18:35 Sunny 83 28.1 67 19.6 60 60 ENE 8 13 29.77 1008 10 16 N/A
6:55 pm 18:55 Sunny 83 28.1 67 19.5 60 60 NE 5 7 29.80 1009 10 16 N/A
7:15 pm 19:15 Sunny 83 28.1 65 18.6 56 56 NNW 5 7 29.80 1009 10 16 N/A
7:35 pm 19:35 Sunny 82 27.7 67 19.5 61 61 NNW 3 6 29.80 1009 10 16 N/A
7:55 pm 19:55 Sunny 81 27.2 68 20.2 66 66 N 3 6 29.80 1009 10 16 N/A
8:15 pm 20:15 Sunny 80 26.4 68 20 68 68 NNW 5 7 29.80 1009 10 16 N/A
8:35 pm 20:35 Sunny 78 25.6 68 19.9 71 71 NNW 3 6 29.83 1010 10 16 N/A
8:55 pm 20:55 Sunny 76 24.4 68 19.9 76 76 NW 5 7 29.83 1010 10 16 N/A
9:15 pm 21:15 Clear 73 22.6 69 20.4 87 87 N 3 6 29.83 1010 10 16 N/A
9:35 pm 21:35 Clear 73 23 69 20.3 85 85 N 3 6 29.83 1010 10 16 N/A
9:55 pm 21:55 Clear 71 21.9 69 20.5 92 92 NW 3 6 29.85 1011 10 16 N/A
10:15 pm 22:15 Clear 70 21.3 69 20.3 94 94 N N/A 29.85 1011 7 11 N/A
10:35 pm 22:35 Partly Cloudy 70 21.1 68 20 93 93 N N/A 29.85 1011 7 11 N/A
10:55 pm 22:55 Partly Cloudy 70 20.9 68 20 95 95 N N/A 29.85 1011 7 11 N/A
11:15 pm 23:15 Partly Cloudy 70 20.9 68 19.9 94 94 N 3 6 29.85 1011 10 16 N/A
11:35 pm 23:35 Clear 70 21 68 19.9 93 93 N 3 6 29.85 1011 10 16 N/A
11:55 pm 23:55 Clear 69 20.5 67 19.6 95 95 N N/A 29.88 1012 7 11 N/A

Powered by AerisWeather